Date String (YYYY-MM-DD hh:mm:ss) UTC,Instrument flags,absolute air pressure of the measurement (hPa),sample flow rate (lpm),inlet stack bypass flow (lpm),air temperature of the measurement (°C),ambient temperature measured by the external sensor (°C),aerosol sample conditioner tube jacket temperature (°C),OPC LED temperature (°C),internal box temperature (°C),relative humidity of the measurement (%),span deviation,mass concentration of particles derived from Lorenz-Mie calculation of OPC scattering (μg/m³),mass concentration of particles derived from Lorenz-Mie calculation of OPC scattering (μg/m³),mass concentration of particles derived from Lorenz-Mie calculation of OPC scattering (μg/m³)
DateTimeUTC,F1_M11,P_M11,Q1_M11,Q2_M11,T1_M11,T2_M11,T3_M11,T4_M11,T5_M11,U1_M11,ZSPAN_M11,X0_M11,X2_M11,X1_M11
2023-11-17 15:00:00,SystemResetWarning,0830.7,5.01,000.00,025.3,024.3,000.0,033.8,026.7,22.5,0000.2,0011.67,0009.05,0008.66
2023-11-17 15:01:00,SystemResetWarning,0830.4,5.01,000.00,025.3,024.3,000.0,033.8,026.8,22.5,0000.5,0011.84,0009.10,0008.71
2023-11-17 15:02:00,SystemResetWarning,0830.5,5.00,000.00,025.3,024.3,000.0,033.7,026.8,22.5,0000.7,0011.90,0009.16,0008.75
2023-11-17 15:03:00,SystemResetWarning,0830.6,4.99,000.00,025.3,024.3,000.0,033.7,026.7,22.6,0001.1,0011.82,0009.20,0008.79
2023-11-17 15:04:00,SystemResetWarning,0830.6,4.99,000.00,025.3,024.3,000.0,033.7,026.7,23.0,0000.7,0011.61,0009.24,0008.84
2023-11-17 15:05:00,SystemResetWarning,0830.5,4.99,000.00,025.3,024.3,000.0,033.7,026.7,26.6,-000.1,0011.79,0009.35,0008.92
2023-11-17 15:06:00,SystemResetWarning,0830.6,5.01,000.00,025.3,024.3,000.0,033.7,026.7,28.7,0000.5,0012.02,0009.45,0008.97
2023-11-17 15:07:00,SystemResetWarning,0830.4,5.01,000.00,025.3,024.3,000.0,033.7,026.7,24.9,-000.2,0012.20,0009.48,0009.01
2023-11-17 15:08:00,SystemResetWarning,0830.6,5.01,000.00,025.3,024.3,000.0,033.7,026.7,23.6,-000.2,0012.73,0009.54,0009.05
2023-11-17 15:09:00,SystemResetWarning,0830.7,4.99,000.00,025.3,024.3,000.0,033.7,026.7,23.4,0000.1,0012.83,0009.62,0009.10
2023-11-17 15:10:00,SystemResetWarning,0830.7,4.99,000.00,025.3,024.3,000.0,033.7,026.7,23.3,-000.1,0012.95,0009.70,0009.15
2023-11-17 15:11:00,SystemResetWarning,0830.7,5.00,000.00,025.3,024.3,000.0,033.7,026.8,23.1,-000.1,0013.08,0009.76,0009.20
2023-11-17 15:12:00,SystemResetWarning,0830.6,4.99,000.00,025.2,024.3,000.0,033.7,026.7,23.0,-000.2,0013.20,0009.82,0009.24
2023-11-17 15:13:00,SystemResetWarning,0830.8,5.00,000.00,025.2,024.3,000.0,033.7,026.7,23.0,-000.5,0014.15,0009.83,0009.25
2023-11-17 15:14:00,SystemResetWarning,0830.8,5.00,000.00,025.2,024.3,000.0,033.7,026.7,23.0,-000.7,0014.86,0009.86,0009.24
2023-11-17 15:15:00,SystemResetWarning,0830.8,5.01,000.00,025.2,024.3,000.0,033.7,026.7,23.0,-000.7,0015.65,0009.86,0009.24
2023-11-17 15:16:00,SystemResetWarning,0830.8,5.01,000.00,025.3,024.3,000.0,033.7,026.6,23.1,-000.1,0016.17,0009.85,0009.22
2023-11-17 15:17:00,SystemResetWarning,0830.8,5.01,000.00,025.3,024.3,000.0,033.7,026.7,23.1,-000.1,0016.02,0009.82,0009.22
2023-11-17 15:18:00,SystemResetWarning,0830.8,5.00,000.00,025.3,024.3,000.0,033.7,026.7,23.2,0000.0,0016.04,0009.79,0009.21
2023-11-17 15:19:00,SystemResetWarning,0830.9,4.99,000.00,025.3,024.3,000.0,033.7,026.7,23.3,-000.3,0015.52,0009.84,0009.22
2023-11-17 15:20:00,SystemResetWarning,0830.9,5.00,000.00,025.3,024.3,000.0,033.6,026.7,23.4,-000.1,0015.85,0009.87,0009.24
2023-11-17 15:21:00,SystemResetWarning,0831.0,5.00,000.00,025.3,024.3,000.0,033.6,026.7,23.4,0000.5,0015.94,0009.84,0009.23
2023-11-17 15:22:00,SystemResetWarning,0831.1,5.01,000.00,025.3,024.3,000.0,033.7,026.7,23.3,0001.0,0015.98,0009.85,0009.23
2023-11-17 15:23:00,SystemResetWarning,0831.0,5.00,000.00,025.3,024.3,000.0,033.7,026.8,23.2,0001.1,0015.91,0009.85,0009.22
2023-11-17 15:24:00,SystemResetWarning,0830.9,5.00,000.00,025.3,024.3,000.0,033.7,026.8,23.2,0001.4,0015.37,0009.86,0009.21
2023-11-17 15:25:00,SystemResetWarning,0831.1,4.99,000.00,025.3,024.3,000.0,033.7,026.8,23.1,0001.4,0014.89,0009.91,0009.23
2023-11-17 15:26:00,SystemResetWarning,0831.1,4.98,000.00,025.3,024.3,000.0,033.7,026.7,23.1,0001.6,0014.19,0009.96,0009.26
2023-11-17 15:27:00,SystemResetWarning,0830.9,5.00,000.00,025.3,024.3,000.0,033.6,026.7,23.1,0001.9,0013.68,0010.01,0009.30
2023-11-17 15:28:00,SystemResetWarning,0830.9,5.01,000.00,025.3,024.3,000.0,033.6,026.7,23.1,0001.4,0013.93,0010.09,0009.34
2023-11-17 15:29:00,SystemResetWarning,0830.9,5.01,000.00,025.3,024.3,000.0,033.6,026.7,23.1,0002.0,0013.99,0010.16,0009.39
2023-11-17 15:30:00,SystemResetWarning,0830.9,4.99,000.00,025.3,024.3,000.0,033.6,026.7,23.2,0002.4,0014.69,0010.13,0009.40
2023-11-17 15:31:00,SystemResetWarning,0831.0,4.99,000.00,025.3,024.3,000.0,033.6,026.7,23.3,0002.2,0014.93,0010.11,0009.39
2023-11-17 15:32:00,SystemResetWarning,0830.9,4.99,000.00,025.3,024.3,000.0,033.6,026.7,23.3,0001.8,0014.88,0010.16,0009.43
2023-11-17 15:33:00,SystemResetWarning,0830.9,5.01,000.00,025.3,024.3,000.0,033.6,026.7,23.3,0001.7,0015.01,0010.16,0009.44
2023-11-17 15:34:00,SystemResetWarning,0830.9,5.01,000.00,025.3,024.3,000.0,033.6,026.7,23.3,0001.6,0014.90,0010.15,0009.47
2023-11-17 15:35:00,SystemResetWarning,0830.9,5.01,000.00,025.3,024.3,000.0,033.6,026.7,23.3,0001.4,0014.84,0010.18,0009.50
2023-11-17 15:36:00,SystemResetWarning,0831.0,4.99,000.00,025.3,024.3,000.0,033.6,026.7,23.5,0001.7,0014.55,0010.21,0009.53
2023-11-17 15:37:00,SystemResetWarning,0830.9,4.99,000.00,025.3,024.3,000.0,033.6,026.7,23.6,0002.3,0014.53,0010.24,0009.54
2023-11-17 15:38:00,SystemResetWarning,0831.0,5.01,000.00,025.3,024.3,000.0,033.6,026.7,23.5,0002.0,0014.33,0010.20,0009.55
2023-11-17 15:39:00,SystemResetWarning,0831.1,5.01,000.00,025.3,024.3,000.0,033.6,026.7,23.6,0002.1,0014.16,0010.17,0009.54
2023-11-17 15:40:00,SystemResetWarning,0831.1,5.00,000.00,025.3,024.3,000.0,033.6,026.7,23.8,0001.6,0014.92,0010.18,0009.54
2023-11-17 15:41:00,SystemResetWarning,0831.1,4.99,000.00,025.3,024.3,000.0,033.6,026.7,23.9,0001.3,0014.34,0010.20,0009.56
2023-11-17 15:42:00,SystemResetWarning,0831.0,5.00,000.00,025.3,024.3,000.0,033.6,026.7,23.9,0001.3,0013.58,0010.24,0009.59
2023-11-17 15:43:00,SystemResetWarning,0831.0,5.00,000.00,025.3,024.3,000.0,033.6,026.7,24.0,0001.0,0013.53,0010.24,0009.59
2023-11-17 15:44:00,SystemResetWarning,0831.2,5.00,000.00,025.3,024.3,000.0,033.6,026.7,24.0,0001.0,0013.38,0010.24,0009.61
2023-11-17 15:45:00,SystemResetWarning,0831.2,5.00,000.00,025.3,024.3,000.0,033.6,026.7,24.1,0001.3,0013.49,0010.29,0009.64
2023-11-17 15:46:00,SystemResetWarning,0831.2,5.00,000.00,025.3,024.3,000.0,033.6,026.7,24.1,0001.5,0013.52,0010.29,0009.67
2023-11-17 15:47:00,SystemResetWarning,0831.1,5.01,000.00,025.3,024.3,000.0,033.6,026.7,23.9,0001.4,0013.55,0010.28,0009.68
2023-11-17 15:48:00,SystemResetWarning,0831.1,5.01,000.00,025.3,024.3,000.0,033.6,026.7,23.9,0001.2,0013.60,0010.29,0009.70
2023-11-17 15:49:00,SystemResetWarning,0831.1,4.99,000.00,025.3,024.3,000.0,033.6,026.7,24.1,0001.0,0013.65,0010.31,0009.70
2023-11-17 15:50:00,SystemResetWarning,0831.2,5.00,000.00,025.3,024.4,000.0,033.6,026.7,24.4,0001.0,0014.33,0010.36,0009.72
2023-11-17 15:51:00,SystemResetWarning,0831.1,4.99,000.00,025.3,024.4,000.0,033.6,026.7,24.8,0000.8,0014.47,0010.36,0009.73
2023-11-17 15:52:00,SystemResetWarning,0831.1,5.00,000.00,025.3,024.4,000.0,033.6,026.8,25.1,0000.4,0014.30,0010.38,0009.74
2023-11-17 15:53:00,SystemResetWarning,0831.2,5.00,000.00,025.3,024.4,000.0,033.6,026.8,25.4,0000.5,0014.30,0010.40,0009.74
2023-11-17 15:54:00,SystemResetWarning,0831.2,5.01,000.00,025.3,024.4,000.0,033.6,026.8,25.4,0001.0,0014.30,0010.39,0009.73
2023-11-17 15:55:00,SystemResetWarning,0831.3,5.00,000.00,025.3,024.4,000.0,033.7,026.8,25.2,0001.0,0014.32,0010.44,0009.73
2023-11-17 15:56:00,SystemResetWarning,0831.3,5.00,000.00,025.3,024.4,000.0,033.7,026.8,24.8,0000.9,0014.30,0010.45,0009.72
2023-11-17 15:57:00,SystemResetWarning,0831.3,5.00,000.00,025.3,024.4,000.0,033.7,026.8,24.5,0000.8,0015.36,0010.48,0009.71
2023-11-17 15:58:00,SystemResetWarning,0831.3,5.00,000.00,025.3,024.4,000.0,033.7,026.8,24.3,0000.6,0015.67,0010.46,0009.69
2023-11-17 15:59:00,SystemResetWarning,0831.3,5.00,000.00,025.3,024.4,000.0,033.7,026.7,24.2,0000.6,0015.46,0010.40,0009.68
